Find Starlink 31368

NORAD ID: 58970 Int'l Des: 2024-031 Owner: SPXS Country: US Constellation: starlink operational
LEOCIRCULAR

实时位置

正在加载3D地球...

关于 Starlink 31368

正在加载描述...

即将过境

Passes for default location (London). Set your location on the main map for personalized predictions.

高度历史

Loading altitude history...

两行轨道根数

1 58970U 24031F 26126.14520036 .00001264 00000-0 54801-4 0 9992
2 58970 53.1615 29.5592 0001129 74.2905 285.8220 15.30189968125335
Epoch: May 6, 2026 • Age: 9 hours

当前状态

高度 493.4 km
速度 7.62 km/s
星下点 -50.61°S, 90.2°W
发射日期 Feb 15, 2024
运行时间 2.2 years
类型 internet

技术详情

分类 Payload
质量 730.00 kg
干质量 700.00 kg
总质量 730.00 kg
长度 0.30 m
直径 4.10 m
跨度 29.00 m
形状 Box + pan
制造商 SPXS
平台类型 Starlink V2M
阶段状态 In Orbit
所有者/国家 SPXS/US

Most Searched